www.pogodaiklimat.ru
ПОГОДА в Бекабаде

Архив погоды в Бекабаде (Ташкентская область, Узбекистан)

Время
(UTC), дата
06 22.05
09 22.05
12 22.05
15 22.05
18 22.05
21 22.05
00 23.05
03 23.05
06 23.05
09 23.05
12 23.05
15 23.05
18 23.05
21 23.05
00 24.05
03 24.05
06 24.05
09 24.05
12 24.05
15 24.05
18 24.05
21 24.05
00 25.05
03 25.05
06 25.05
09 25.05
12 25.05
15 25.05
18 25.05
21 25.05
00 26.05
03 26.05
06 26.05
09 26.05
12 26.05
15 26.05
18 26.05
21 26.05
00 27.05
03 27.05
06 27.05
09 27.05
12 27.05
15 27.05
18 27.05
21 27.05
00 28.05
03 28.05
06 28.05
09 28.05
15 28.05
Ветер
(напр.,м/с)
Видим. Явления Облачность Т
(С)
Тd
(С)
f
(%)
Тe
(С)
Тes
(С)
Комфортность P
(гПа)
Po
(гПа)
Тmin
(С)
Tmax
(С)
R
(мм)
R24
(мм)
S
(см)
З 2 10 км 6/0
[Ac cast Ci sp]
+24.1 +21.9 88 +31 +44 очень душно 1015.8 981.5 +16.8
З 4 10 км 8/0
[Ac cast Ci sp]
+27.6 +24.6 84 +39 +47 очень душно 1014.4 980.6
З 2 10 км 6/3 600 м
[Cu med, cong Ac cuf Ci sp]
+28.0 +24.6 82 +40 +43 очень душно 1013.3 979.5
штиль 0 10 км 8/4 600 м
[Cu med, cong Ac cuf Ci sp]
+25.0 +22.2 84 +32 +32 очень душно 1014.1 979.9 +28.2
З 3 10 км 8/4 600 м
[Cu med, cong Ac cuf Ci sp]
+21.8 +19.3 86 +27 +27 душно 1014.2 980.0 +28.2
З 2 10 км 9/5 600 м
[Cb calv Ac cuf]
+20.5 +18.4 88 +25 +25 комфорт 1014.1 979.4
штиль 0 10 км 10/4 600 м
[Cb calv Ac As]
+17.9 +16.2 90 +18 +18 1014.3 979.2
З 2 10 км 8/4 600 м
[Cu med, cong Ac cuf Ci sp]
+19.5 +17.5 88 +22 +25 комфорт 1013.7 978.9
З 4 10 км 3/0
[Ci sp]
+24.3 +21.6 85 +31 +43 очень душно 1012.8 978.6 +18.0
З 3 10 км ясно +27.2 +23.7 81 +37 +52 опасность солнечного удара 1011.6 977.8
В 1 10 км 3/0
[Ac cast Ci sp]
+28.4 +24.4 79 +40 +45 очень душно 1010.1 976.5
З 2 10 км 3/0
[Ac cast Ci sp]
+25.9 +22.5 82 +34 +34 очень душно 1008.4 974.6 +28.6
Ю 1 10 км ясно +21.5 +18.5 83 +26 +26 душно 1008.6 974.2 +28.6
ЮВ 2 10 км ясно +20.4 +17.8 85 +24 +24 комфорт 1008.2 973.7
штиль 0 10 км 5/0
[Ci]
+18.5 +16.4 88 +19 +19 1007.9 973.1
З 4 10 км 10/8
[Cb calv Ac As]
+20.2 +17.6 85 +23 +24 комфорт 1008.7 974.0
ЮЗ 2 10 км {ливн. дождь} 8/4 1000 м
[Cu med, cong Ac cuf Ci sp]
+24.0 +20.3 80 +30 +37 очень душно 1009.1 975.0 +18.6
штиль 0 10 км слаб. ливневой дождь 8/3 600 м
[Cb calv Ac cuf Ci sp]
+21.4 +18.2 82 +26 +36 душно 1011.2 976.7
В 4 10 км 3/0
[Ac cast Ci sp]
+25.2 +20.6 76 +31 +34 очень душно 1010.8 976.8
штиль 0 10 км 3/0
[Ac cast Ci sp]
+22.2 +18.2 78 +27 +27 душно 1011.1 976.7 +25.4
ЮВ 2 10 км ясно +19.7 +16.2 80 +23 +23 комфорт 1011.9 977.1 +25.4 3
В 9 10 км 4/0
[Ac cast Ci sp]
+19.5 +16.0 80 +21 +21 комфорт 1012.1 977.3
В 8 10 км 3/0
[Ac cast]
+18.9 +15.5 81 +19 +19 1011.8 977.0
В 10 10 км 4/0
[Ac cast Ci sp]
+21.2 +17.3 78 +25 +25 комфорт 1012.5 977.8
В 8 10 км 5/0
[Ac cast Ci sp]
+26.6 +22.0 76 +34 +37 очень душно 1012.2 978.3 +19.0
В 4 10 км 4/0
[Ci]
+31.9 +26.8 74 +49 +60 очень душно 1012.2 978.9
В 8 10 км {гроза} 9/5 600 м
[Cb calv Ac cuf]
+25.1 +20.2 74 +31 +31 очень душно 1013.3 979.1
ЮВ 2 10 км 8/3 600 м
[Cb calv Ac cuf Ci sp]
+25.0 +20.6 77 +31 +31 очень душно 1013.6 979.4 +32.1
В 4 10 км 10/4 600 м
[Cb calv Ac As]
+21.6 +17.6 78 +26 +26 душно 1014.1 979.5 +32.1
В 6 10 км 8/3 600 м
[Cb calv Ac cuf Ci sp]
+15.2 +11.9 81 +14 +14 1014.4 979.0
З 6 10 км 8/0
[Ac cast Ci sp]
+12.5 +9.5 82 +10 +10 1014.6 978.8
З 4 10 км 8/3 600 м
[Cb calv Ac cuf Ci sp]
+11.8 +8.4 80 +10 +12 1014.5 978.6
З 5 10 км 5/0
[Ac cast Ci sp]
+16.1 +12.3 78 +15 +22 1025.9 990.2 +11.9
З 6 10 км 3/0
[Ci sp]
+19.5 +15.2 76 +21 +27 комфорт 1025.1 989.8
З 4 10 км 4/0
[Ac cast Ci sp]
+20.6 +15.9 74 +24 +27 комфорт 1023.2 988.2
штиль 0 10 км 6/0
[Ac cast Ci sp]
+17.0 +12.7 76 +17 +17 1023.1 987.6 +20.7
штиль 0 10 км ясно +13.1 +9.4 78 +13 +13 1023.1 987.0 +20.7
ЮВ 2 10 км ясно +12.2 +8.8 80 +11 +11 1021.0 984.9
штиль 0 10 км 4/0
[Ac cast Ci sp]
+10.4 +7.4 82 +10 +10 1018.7 982.5
штиль 0 10 км ясно +15.1 +11.8 81 +15 +23 1017.1 981.6
В 8 10 км ясно +25.4 +21.4 79 +32 +36 очень душно 1014.1 979.9 +10.5
В 5 10 км ясно +29.0 +24.1 75 +40 +50 очень душно 1012.2 978.6
штиль 0 10 км ясно +29.8 +24.4 73 +42 +49 очень душно 1011.1 977.6
З 1 10 км 3/0
[Ac cast Ci sp]
+25.9 +21.2 75 +33 +33 очень душно 1012.0 978.0 +30.0
Ю 2 10 км 5/0
[Ac cast Ci sp]
+18.9 +14.8 77 +21 +21 комфорт 1013.5 978.6 +30.0
штиль 0 10 км 3/0
[Ci sp]
+16.7 +13.1 79 +17 +17 1013.1 977.8
штиль 0 10 км ясно +14.2 +11.0 81 +14 +14 1014.1 978.6
З 2 10 км ясно +19.4 +15.7 79 +22 +28 комфорт 1014.5 979.5
З 3 10 км 3/0
[Ci sp]
+28.2 +23.4 75 +38 +52 опасность солнечного удара 1012.4 978.8 +14.3
З 4 10 км 3/0
[Ci sp]
+30.2 +24.2 70 +42 +53 очень душно 1011.8 978.4
З 2 10 км 3/0
[Ac cast]
+25.0 +19.2 70 +30 +30 душно 1014.1 979.9 +30.4
Местоположение метеостанции Бекабад (Ташкентская область, Узбекистан): широта 40.20 долгота 69.27 высота над уровнем моря 300 м.
В архиве по умолчанию представлена погода в Бекабаде за последнюю неделю. Архивные данные за месяц целиком и за предыдущие месяцы, начиная с января 2011 года, Вы можете получить, выбрав интересующий диапазон дат из раскрывающегося списка и нажав кнопку "Найти!".
*Определитесь, кто Вы:
Внимание! Время в таблицах - всемирное. Для получения местного времени необходимо прибавить поправку, которая равна 5 ч.
Некоторые строки с данными для отдельных станций могут быть выделены курсивом. Это означает, что фактические данные отсутствуют по различным причинам, а приведенные значения являются расчетными модельными данными для данного пункта наблюдений.
Смотрите также архив погоды в соседних городах и на ближайших метеорологических станциях:
Партнеры нашего сайта:      
Пояснения к столбцам:
  • Ветер - указаны скорость ветра в м/с - средняя за 10 мин, порывы в срок и между сроками (в фигурных скобках) и направление, откуда дует ветер: С - северный,
  • СВ - северо-восточный, В - восточный, ЮВ - юго-восточный, Ю - южный, ЮЗ - юго-западный, З - западный, СЗ - северо-западный.
  • Видимость - горизонтальная дальность видимости в метрах или километрах. При видимости от 1 до 10 км при отсутствии осадков обычно наблюдается дымка, при ухудшении видимости до 1 км и менее - туман. В сухую погоду видимость может ухудшаться дымом, пылью или мглою.
  • Явления - указаны атмосферные явления, наблюдавшиеся в срок или в последний час перед сроком; фигурными скобками обозначены явления, наблюдавшиеся между сроками (за 1-3 часа до срока); квадратными скобками обозначены град или гололедные отложения с указанием их диаметра в мм.
  • Облачность - указаны через наклонную черту общая и нижняя облачность в баллах и высота нижней границы облаков в метрах; квадратными скобками обозначены формы облаков: Ci - перистые, Cs - перисто-слоистые, Cc - перисто-кучевые, Ac - высококучевые, As - высокослоистые, Sc - слоисто-кучевые, Ns - слоисто-дождевые, Cu - кучевые, Cb - кучево-дождевые. Подробнее классификацию облаков см. в Атласе облаков (PDF).
  • T - Температура воздуха - температура, измеренная на высоте 2 м над землей.
  • Td - Температура точки росы - температура, при понижении до которой содержащийся в воздухе водяной пар достигнет насыщения.
  • f - Относительная влажность воздуха - влажноcть воздуха, измеренная на высоте 2 м над землей.
  • Te - Эффективная температура - температура, которую ощущает одетый по сезону человек в тени. Характеристика душности погоды. При расчете учитывается влияние влажности воздуха и скорости ветра на теплоощущения человека.
  • Tes - Эффективная температура на солнце - температура, которую ощущает человек, с поправкой на солнечный нагрев. Характеристика знойности погоды. Зависит от высоты солнца над горизонтом, облачности и скорости ветра. Ночью, в пасмурную погоду, а также при ветре 12 м/с и более поправка равна нулю.
  • P - Атмосферное давление - приведенное к уровню моря атмосферное давление.
  • Po - Атмосферное давление - измеренное на уровне метеостанции атмосферное давление.
  • Tmin - Минимальная температура - минимум температуры воздуха на высоте 2 м над землей.
  • Tmax - Максимальная температура - максимум температуры воздуха на высоте 2 м над землей.
  • R - Количество осадков - Количество выпавших осадков за период времени, мм. При наведении курсора мыши на число - период времени, за который выпало указанное количество осадков.
  • R24 - Количество осадков - Количество выпавших осадков за 24 часа, мм.
  • S - Снежный покров - Высота снежного покрова, см. При наведении курсора мыши на число - состояние снежного покрова и степень покрытия местности в баллах.